GW2660 Weather Reports


Display with metric or nautical units.
time (UTC)temp
F
wind
direction
speed
MPH
gust
MPH
rain 1hr
in
rain 24hr
in
rain mn
in
humidity
%
barometer
mb
20260906122128 70 53 0.0 1.0 0.00 0.00 0.00 98 1020.7
20260906121624 69 89 1.0 5.0 0.00 0.00 0.00 99 1020.6
20260906121120 68 60 3.0 5.0 0.00 0.00 0.00 99 1020.4
20260906120615 68 333 0.0 3.0 0.00 0.00 0.00 99 1020.5
20260906120112 68 60 3.0 6.0 0.00 0.00 0.00 99 1020.1
20260906115607 68 18 0.0 4.0 0.00 0.00 0.00 99 1020.1
20260906115102 67 53 4.0 7.0 0.00 0.00 0.00 99 1020.1
20260906114556 67 68 1.0 3.0 0.00 0.00 0.00 99 1020.1
20260906114051 67 27 0.0 4.0 0.00 0.00 0.00 99 1020.0
20260906113550 67 41 2.0 2.0 0.00 0.00 0.00 99 1019.8
20260906113045 67 77 2.0 2.0 0.00 0.00 0.00 99 1019.9
20260906112540 67 142 0.0 2.0 0.00 0.00 0.00 99 1019.4
20260906112037 67 351 0.0 3.0 0.00 0.00 0.00 99 1019.7
20260906111536 67 61 5.0 6.0 0.00 0.00 0.00 99 1019.6
20260906111032 67 70 3.0 5.0 0.00 0.00 0.00 99 1019.3
20260906110531 67 50 0.0 8.0 0.00 0.00 0.00 99 1019.1
20260906110031 67 44 0.0 3.0 0.00 0.00 0.00 99 1019.6
20260906105526 67 167 0.0 1.0 0.00 0.00 0.00 99 1019.4
20260906105022 67 29 0.0 2.0 0.00 0.00 0.00 99 1019.0
20260906104520 67 60 0.0 1.0 0.00 0.00 0.00 99 1019.2
20260906104015 67 38 0.0 1.0 0.00 0.00 0.00 99 1019.2
20260906103513 68 89 0.0 2.0 0.00 0.00 0.00 99 1019.0
20260906103009 68 81 2.0 2.0 0.00 0.00 0.00 99 1018.9
20260906102508 68 152 0.0 1.0 0.00 0.00 0.00 99 1018.9
20260906102003 68 104 3.0 3.0 0.00 0.00 0.00 99 1018.9
20260906101458 68 61 0.0 6.0 0.00 0.00 0.00 99 1018.9
20260906100953 68 150 0.0 3.0 0.00 0.00 0.00 99 1019.0
20260906100448 68 7 0.0 3.0 0.00 0.00 0.00 99 1019.0
20260906095942 68 75 0.0 3.0 0.00 0.00 0.00 99 1019.1
20260906095438 68 75 0.0 2.0 0.00 0.00 0.00 99 1018.9
20260906094932 68 29 0.0 1.0 0.00 0.00 0.00 99 1018.9
20260906094426 68 30 0.0 4.0 0.00 0.00 0.00 99 1018.8
20260906093922 68 27 2.0 3.0 0.00 0.00 0.00 99 1018.7
20260906093418 68 75 2.0 4.0 0.00 0.00 0.00 98 1018.6
20260906092913 68 351 0.0 1.0 0.00 0.00 0.00 98 1018.9
20260906092413 69 141 0.0 4.0 0.00 0.00 0.00 98 1018.8
20260906091908 69 52 0.0 4.0 0.00 0.00 0.00 98 1018.7
20260906091404 69 80 0.0 2.0 0.00 0.00 0.00 98 1018.7
20260906090901 69 64 3.0 5.0 0.00 0.00 0.00 98 1018.6
20260906090400 69 37 0.0 2.0 0.00 0.00 0.00 98 1018.6
20260906085854 69 309 0.0 1.0 0.00 0.00 0.00 97 1018.5
20260906085348 69 126 0.0 3.0 0.00 0.00 0.00 97 1018.7
20260906084843 69 72 1.0 4.0 0.00 0.00 0.00 97 1018.7
20260906084343 69 52 3.0 5.0 0.00 0.00 0.00 97 1018.8
20260906083837 70 4 0.0 5.0 0.00 0.00 0.00 97 1018.8
20260906083332 69 45 2.0 5.0 0.00 0.00 0.00 97 1018.6
20260906082826 70 45 2.0 5.0 0.00 0.00 0.00 97 1018.8
20260906082322 70 327 0.0 5.0 0.00 0.00 0.00 97 1018.6
20260906081818 69 85 0.0 2.0 0.00 0.00 0.00 97 1018.6
20260906081313 70 116 1.0 7.0 0.00 0.00 0.00 96 1018.7
20260906080809 70 104 0.0 3.0 0.00 0.00 0.00 96 1018.7
20260906080305 70 72 1.0 3.0 0.00 0.00 0.00 96 1018.6
20260906075805 70 51 3.0 3.0 0.00 0.00 0.00 96 1018.7
20260906075306 70 89 0.0 5.0 0.00 0.00 0.00 96 1018.9
20260906074800 70 15 0.0 4.0 0.00 0.00 0.00 96 1018.9
20260906074259 70 55 3.0 4.0 0.00 0.00 0.00 95 1019.2
20260906073759 70 46 2.0 5.0 0.00 0.00 0.00 95 1018.9
20260906073253 70 57 0.0 2.0 0.00 0.00 0.00 95 1018.8
20260906072750 70 53 2.0 6.0 0.00 0.00 0.00 95 1018.9
20260906072245 70 78 2.0 4.0 0.00 0.00 0.00 95 1018.9
20260906071741 71 26 1.0 2.0 0.00 0.00 0.00 94 1019.0
20260906071241 71 64 3.0 5.0 0.00 0.00 0.00 94 1018.9
20260906070737 71 89 0.0 4.0 0.00 0.00 0.00 94 1018.9
20260906070233 71 303 0.0 3.0 0.00 0.00 0.00 94 1019.0
20260906065732 71 41 4.0 6.0 0.00 0.00 0.00 93 1019.1
20260906065228 71 349 0.0 4.0 0.00 0.00 0.00 93 1019.0
20260906064723 71 64 1.0 3.0 0.00 0.00 0.00 93 1018.9
20260906064219 72 48 0.0 4.0 0.00 0.00 0.00 92 1019.0
20260906063714 72 68 0.0 4.0 0.00 0.00 0.00 92 1018.9
20260906063209 72 88 1.0 5.0 0.00 0.00 0.00 92 1019.0
20260906062705 72 51 2.0 4.0 0.00 0.00 0.00 92 1018.8
20260906062204 72 133 0.0 6.0 0.00 0.00 0.00 92 1019.0
20260906061700 72 86 2.0 2.0 0.00 0.00 0.00 92 1019.2
20260906061155 72 67 2.0 5.0 0.00 0.00 0.00 92 1019.2
20260906060651 72 60 1.0 5.0 0.00 0.00 0.00 92 1019.1
20260906060148 72 100 1.0 3.0 0.00 0.00 0.00 92 1019.0
20260906055644 72 65 3.0 5.0 0.00 0.00 0.00 92 1018.9
20260906055138 72 65 2.0 6.0 0.00 0.00 0.00 92 1019.0
20260906054634 72 104 0.0 7.0 0.00 0.00 0.00 92 1018.8
20260906054129 72 51 5.0 7.0 0.00 0.00 0.00 92 1018.8
20260906053625 72 5 0.0 4.0 0.00 0.00 0.00 92 1018.8
20260906053120 72 7 0.0 4.0 0.00 0.00 0.00 92 1018.7
20260906052616 72 5 0.0 5.0 0.00 0.00 0.00 91 1018.8
20260906052112 72 355 0.0 3.0 0.00 0.00 0.00 91 1018.7
20260906051608 72 117 1.0 3.0 0.00 0.00 0.00 91 1018.7
20260906051103 72 54 3.0 5.0 0.00 0.00 0.00 91 1018.7
20260906050558 72 64 3.0 5.0 0.00 0.00 0.00 91 1018.7
20260906050054 73 32 0.0 0.0 0.00 0.00 0.00 90 1018.6
20260906045551 73 49 1.0 7.0 0.00 0.00 0.00 90 1018.5
20260906045047 73 67 3.0 5.0 0.00 0.00 0.00 90 1018.5
20260906044543 73 3 2.0 7.0 0.00 0.00 0.00 90 1018.6
20260906044038 73 348 0.0 7.0 0.00 0.00 0.00 89 1018.5
20260906043534 73 71 2.0 3.0 0.00 0.00 0.00 89 1018.5
20260906043030 73 73 2.0 4.0 0.00 0.00 0.00 89 1018.3
20260906042528 73 46 3.0 6.0 0.00 0.00 0.00 89 1018.1
20260906042023 73 38 4.0 6.0 0.00 0.00 0.00 88 1018.2
20260906041520 73 60 2.0 4.0 0.00 0.00 0.00 88 1018.2
20260906041019 73 20 1.0 4.0 0.00 0.00 0.00 88 1018.2
20260906040514 73 67 7.0 10.0 0.00 0.00 0.00 88 1017.8
20260906040010 73 28 2.0 8.0 0.00 0.00 0.00 88 1018.0
20260906035504 73 104 0.0 5.0 0.00 0.00 0.00 88 1017.9
20260906034955 73 53 3.0 5.0 0.00 0.00 0.00 87 1017.8
20260906034454 73 51 4.0 6.0 0.00 0.00 0.00 88 1017.7
20260906033950 73 30 0.0 7.0 0.00 0.00 0.00 88 1017.8
20260906033444 73 75 2.0 5.0 0.00 0.00 0.00 88 1017.8
20260906032940 73 51 2.0 7.0 0.00 0.00 0.00 88 1017.9
20260906032436 73 62 0.0 7.0 0.00 0.00 0.00 88 1017.8
20260906031931 73 50 0.0 7.0 0.00 0.00 0.00 88 1017.9
20260906031426 73 65 1.0 5.0 0.00 0.00 0.00 88 1017.7
20260906030921 73 351 2.0 5.0 0.00 0.00 0.00 88 1017.8
20260906030416 73 113 8.0 13.0 0.00 0.00 0.00 88 1017.9
20260906025910 73 39 1.0 6.0 0.00 0.00 0.00 88 1017.9
20260906025405 73 49 7.0 9.0 0.00 0.00 0.00 88 1017.9
20260906024904 73 87 3.0 7.0 0.00 0.00 0.00 88 1017.8
20260906024403 73 356 0.0 6.0 0.00 0.00 0.00 88 1017.9
20260906023859 73 142 0.0 7.0 0.00 0.00 0.00 88 1017.9
20260906023355 73 80 3.0 3.0 0.00 0.00 0.00 88 1017.8
20260906022854 73 39 3.0 8.0 0.00 0.00 0.00 88 1017.8
20260906022349 73 54 3.0 7.0 0.00 0.00 0.00 88 1017.9
20260906021846 73 21 1.0 13.0 0.00 0.00 0.00 89 1018.0
20260906021344 73 36 0.0 9.0 0.00 0.00 0.00 89 1017.9
20260906020839 73 70 4.0 6.0 0.00 0.00 0.00 89 1017.9
20260906020339 73 31 1.0 9.0 0.00 0.00 0.00 88 1017.8
20260906015834 73 54 3.0 7.0 0.00 0.00 0.00 88 1017.9
20260906015333 73 70 5.0 9.0 0.00 0.00 0.00 88 1017.7
20260906014833 73 19 0.0 7.0 0.00 0.00 0.00 88 1017.6
20260906014327 73 40 3.0 8.0 0.00 0.00 0.00 88 1017.8
20260906013824 73 61 6.0 10.0 0.00 0.00 0.00 88 1017.9
20260906013319 73 53 5.0 9.0 0.00 0.00 0.00 88 1018.0
20260906012814 73 324 1.0 10.0 0.00 0.00 0.00 88 1017.7
20260906012309 73 348 2.0 9.0 0.00 0.00 0.00 88 1017.8
20260906011803 73 29 1.0 5.0 0.00 0.00 0.00 89 1017.7
20260906011258 73 78 3.0 6.0 0.00 0.00 0.00 89 1017.7
20260906010754 73 27 1.0 9.0 0.00 0.00 0.00 89 1017.8
20260906010250 73 293 0.0 10.0 0.00 0.00 0.00 89 1017.7
20260906005745 73 110 4.0 13.0 0.00 0.00 0.00 89 1017.9
20260906005244 73 75 4.0 7.0 0.00 0.00 0.00 89 1017.9
20260906004743 74 55 7.0 10.0 0.00 0.00 0.00 88 1017.9
20260906004238 74 326 0.0 9.0 0.00 0.00 0.00 88 1017.7
20260906003733 75 52 3.0 9.0 0.00 0.00 0.00 87 1017.6
20260906003228 75 46 2.0 9.0 0.00 0.00 0.00 87 1017.6
20260906002723 75 221 0.0 13.0 0.00 0.00 0.00 86 1017.4
20260906002218 76 76 3.0 12.0 0.00 0.00 0.00 86 1017.4
20260906001714 76 64 3.0 6.0 0.00 0.00 0.00 85 1017.2
20260906001214 76 79 7.0 9.0 0.00 0.00 0.00 85 1017.3
20260906000709 77 43 2.0 8.0 0.00 0.00 0.00 85 1017.2
20260906000204 77 56 3.0 10.0 0.00 0.00 0.00 85 1017.0
20260905235703 77 250 1.0 5.0 0.00 0.00 0.00 85 1016.7
20260905235158 77 16 1.0 5.0 0.00 0.00 0.00 85 1016.5
20260905234654 78 86 2.0 6.0 0.00 0.00 0.00 84 1016.4
20260905234149 78 44 5.0 10.0 0.00 0.00 0.00 83 1016.5
20260905233644 79 70 6.0 7.0 0.00 0.00 0.00 82 1016.5
20260905233143 80 91 3.0 7.0 0.00 0.00 0.00 81 1016.6
20260905232638 80 60 5.0 9.0 0.00 0.00 0.00 80 1016.6
20260905232134 80 1 1.0 4.0 0.00 0.00 0.00 80 1016.6
20260905231629 80 68 2.0 5.0 0.00 0.00 0.00 79 1016.6
20260905231126 82 57 3.0 5.0 0.00 0.00 0.00 77 1016.5
20260905230621 83 57 5.0 9.0 0.00 0.00 0.00 75 1016.4
20260905230118 82 61 5.0 7.0 0.00 0.00 0.00 75 1016.3
20260905225613 81 15 0.0 3.0 0.00 0.00 0.00 77 1016.3
20260905225108 82 1 0.0 6.0 0.00 0.00 0.00 75 1016.2
20260905224608 82 72 2.0 7.0 0.00 0.00 0.00 75 1016.1
20260905224107 83 64 1.0 6.0 0.00 0.00 0.00 75 1016.0
20260905223604 83 53 3.0 6.0 0.00 0.00 0.00 74 1016.0
20260905223101 82 45 3.0 6.0 0.00 0.00 0.00 76 1016.1
20260905222600 82 37 5.0 7.0 0.00 0.00 0.00 75 1016.2
20260905222056 83 71 2.0 10.0 0.00 0.00 0.00 74 1016.1
20260905221552 83 94 2.0 8.0 0.00 0.00 0.00 74 1016.1
20260905221048 84 55 5.0 5.0 0.00 0.00 0.00 73 1016.0
20260905220543 84 78 0.0 2.0 0.00 0.00 0.00 74 1015.9
20260905220039 83 63 0.0 10.0 0.00 0.00 0.00 76 1016.0
20260905215538 85 57 5.0 8.0 0.00 0.00 0.00 74 1015.9
20260905215035 86 14 0.0 5.0 0.00 0.00 0.00 74 1015.8
20260905214531 86 333 1.0 5.0 0.00 0.00 0.00 74 1016.3
20260905214025 84 37 0.0 7.0 0.00 0.00 0.00 75 1016.0
20260905213521 84 235 0.0 9.0 0.00 0.00 0.00 77 1016.1
20260905213016 82 89 0.0 7.0 0.00 0.00 0.00 79 1016.1
20260905212511 82 262 0.0 11.0 0.00 0.00 0.00 79 1015.9
20260905212010 82 43 4.0 8.0 0.00 0.00 0.00 77 1016.1
20260905211506 82 15 2.0 9.0 0.00 0.00 0.00 79 1016.2
20260905211002 85 38 2.0 3.0 0.00 0.00 0.00 74 1016.2
20260905210457 85 101 1.0 2.0 0.00 0.00 0.00 76 1016.2
20260905205956 83 34 2.0 3.0 0.00 0.00 0.00 78 1016.2
20260905205451 81 52 3.0 5.0 0.00 0.00 0.00 80 1016.3
20260905204949 82 56 3.0 6.0 0.00 0.00 0.00 79 1016.4
20260905204446 82 67 3.0 12.0 0.00 0.00 0.00 80 1016.3
20260905203945 83 49 3.0 6.0 0.00 0.00 0.00 78 1016.6
20260905203440 82 61 8.0 8.0 0.00 0.00 0.00 79 1016.5
20260905202936 82 37 2.0 8.0 0.00 0.00 0.00 80 1016.6
20260905202431 82 48 3.0 7.0 0.00 0.00 0.00 79 1016.4
20260905201926 82 56 3.0 7.0 0.00 0.00 0.00 79 1016.4
20260905201422 83 67 5.0 11.0 0.00 0.00 0.00 78 1016.5
20260905200921 85 35 3.0 14.0 0.00 0.00 0.00 76 1016.5
20260905200417 83 18 1.0 12.0 0.00 0.00 0.00 79 1016.4
20260905195915 83 97 8.0 14.0 0.00 0.00 0.00 79 1016.2
20260905195410 83 337 1.0 6.0 0.00 0.00 0.00 80 1016.4
20260905194906 84 49 6.0 9.0 0.00 0.00 0.00 78 1016.5
20260905194400 83 43 3.0 11.0 0.00 0.00 0.00 78 1016.4
20260905193900 84 44 2.0 5.0 0.00 0.00 0.00 77 1016.3
20260905193354 84 43 2.0 7.0 0.00 0.00 0.00 77 1016.3
20260905192850 85 234 1.0 5.0 0.00 0.00 0.00 75 1016.2
20260905192346 85 59 5.0 13.0 0.00 0.00 0.00 76 1016.2
20260905191845 86 19 3.0 11.0 0.00 0.00 0.00 74 1016.4
20260905191345 87 47 4.0 5.0 0.00 0.00 0.00 75 1016.3
20260905190843 88 66 10.0 16.0 0.00 0.00 0.00 71 1016.4
20260905190337 87 40 2.0 4.0 0.00 0.00 0.00 74 1016.2
20260905185836 85 41 2.0 11.0 0.00 0.00 0.00 76 1016.4
20260905185331 85 18 1.0 10.0 0.00 0.00 0.00 77 1016.4
20260905184830 88 37 3.0 7.0 0.00 0.00 0.00 73 1016.6
20260905184330 87 73 2.0 8.0 0.00 0.00 0.00 76 1016.4
20260905183828 86 54 4.0 13.0 0.00 0.00 0.00 76 1016.6
20260905183324 87 59 4.0 7.0 0.00 0.00 0.00 75 1016.6
20260905182823 86 125 2.0 6.0 0.00 0.00 0.00 76 1016.5
20260905182317 87 352 1.0 5.0 0.00 0.00 0.00 75 1016.4
20260905181813 85 342 1.0 12.0 0.00 0.00 0.00 77 1016.3
20260905181307 88 32 2.0 8.0 0.00 0.00 0.00 74 1016.4
20260905180806 88 137 2.0 4.0 0.00 0.00 0.00 73 1016.4
20260905180301 90 25 0.0 6.0 0.00 0.00 0.00 70 1016.5
20260905175756 89 304 0.0 2.0 0.00 0.00 0.00 72 1016.5
20260905175251 86 107 0.0 9.0 0.00 0.00 0.00 76 1016.4
20260905174746 87 19 2.0 11.0 0.00 0.00 0.00 75 1016.1
20260905174241 86 57 5.0 7.0 0.00 0.00 0.00 76 1016.1
20260905173737 86 312 0.0 5.0 0.00 0.00 0.00 76 1016.3
20260905173233 87 75 4.0 6.0 0.00 0.00 0.00 74 1016.4
20260905172727 86 98 3.0 7.0 0.00 0.00 0.00 77 1016.3
20260905172226 86 63 7.0 11.0 0.00 0.00 0.00 75 1016.3
20260905171717 86 48 5.0 10.0 0.00 0.00 0.00 77 1016.5
20260905171213 87 80 5.0 8.0 0.00 0.00 0.00 76 1016.5
20260905170710 87 231 0.0 2.0 0.00 0.00 0.00 77 1016.6
20260905170209 87 287 0.0 2.0 0.00 0.00 0.00 77 1016.4
20260905165709 86 70 4.0 9.0 0.00 0.00 0.00 76 1016.6
20260905165205 86 85 3.0 5.0 0.00 0.00 0.00 77 1016.6
20260905164659 86 45 5.0 9.0 0.00 0.00 0.00 78 1016.5
20260905164159 87 315 0.0 4.0 0.00 0.00 0.00 79 1016.7
20260905163655 86 320 1.0 7.0 0.00 0.00 0.00 77 1016.8
20260905163152 86 145 2.0 6.0 0.00 0.00 0.00 79 1016.7
20260905162648 86 12 1.0 7.0 0.00 0.00 0.00 79 1016.7
20260905162147 86 63 4.0 4.0 0.00 0.00 0.00 78 1016.7
20260905161641 86 58 5.0 6.0 0.00 0.00 0.00 77 1016.6
20260905161139 86 47 3.0 7.0 0.00 0.00 0.00 78 1016.7
20260905160638 85 11 1.0 5.0 0.00 0.00 0.00 80 1016.8
20260905160133 86 311 2.0 6.0 0.00 0.00 0.00 80 1016.8
20260905155633 87 45 4.0 6.0 0.00 0.00 0.00 76 1016.8
20260905155131 86 44 0.0 3.0 0.00 0.00 0.00 78 1016.5
20260905154626 85 38 2.0 8.0 0.00 0.00 0.00 78 1016.5
20260905154122 85 53 0.0 6.0 0.00 0.00 0.00 80 1016.6
20260905153617 85 348 0.0 4.0 0.00 0.00 0.00 80 1016.5
20260905153113 83 31 2.0 7.0 0.00 0.00 0.00 82 1016.5
20260905152608 83 48 3.0 8.0 0.00 0.00 0.00 83 1016.5
20260905152102 83 88 4.0 9.0 0.00 0.00 0.00 83 1016.3
20260905151557 82 131 2.0 6.0 0.00 0.00 0.00 83 1016.4
20260905151052 81 74 2.0 5.0 0.00 0.00 0.00 85 1016.5
20260905150548 84 1 0.0 3.0 0.00 0.00 0.00 81 1016.3
20260905150045 85 49 1.0 3.0 0.00 0.00 0.00 79 1016.3
20260905145539 84 89 0.0 2.0 0.00 0.00 0.00 82 1016.3
20260905145038 82 75 0.0 3.0 0.00 0.00 0.00 85 1016.3
20260905144533 82 10 1.0 5.0 0.00 0.00 0.00 85 1016.2
20260905144032 82 110 0.0 4.0 0.00 0.00 0.00 86 1016.2
20260905143532 80 80 2.0 10.0 0.00 0.00 0.00 88 1016.1
20260905143027 78 60 2.0 5.0 0.00 0.00 0.00 91 1016.2
20260905142525 78 323 3.0 6.0 0.00 0.00 0.00 91 1016.2
20260905142021 78 29 2.0 7.0 0.00 0.00 0.00 92 1015.9
20260905141515 78 3 0.0 9.0 0.00 0.00 0.00 91 1016.0
20260905141012 79 85 2.0 8.0 0.00 0.00 0.00 90 1016.2
20260905140507 80 6 0.0 3.0 0.00 0.00 0.00 89 1016.0
20260905140006 82 70 3.0 4.0 0.00 0.00 0.00 87 1016.0
20260905135501 82 35 3.0 5.0 0.00 0.00 0.00 87 1015.7
20260905134956 82 19 2.0 4.0 0.00 0.00 0.00 87 1015.6
20260905134455 81 31 4.0 7.0 0.00 0.00 0.00 87 1015.6
20260905133954 82 58 6.0 9.0 0.00 0.00 0.00 86 1015.7
20260905133444 81 100 1.0 5.0 0.00 0.00 0.00 89 1015.7
20260905132944 80 49 7.0 7.0 0.00 0.00 0.00 88 1015.7
20260905132439 82 78 6.0 9.0 0.00 0.00 0.00 86 1015.9
20260905131933 83 5 0.0 2.0 0.00 0.00 0.00 85 1016.1
20260905131430 82 326 0.0 2.0 0.00 0.00 0.00 87 1016.1
20260905130924 81 77 2.0 4.0 0.00 0.00 0.00 87 1015.9
20260905130423 81 230 0.0 5.0 0.00 0.00 0.00 88 1015.6
20260905125918 80 62 0.0 3.0 0.00 0.00 0.00 90 1015.4
20260905125413 80 59 4.0 5.0 0.00 0.00 0.00 90 1015.4
20260905124908 80 81 2.0 5.0 0.00 0.00 0.00 90 1015.2
20260905124405 80 55 1.0 6.0 0.00 0.00 0.00 91 1015.2
20260905123904 79 15 0.0 1.0 0.00 0.00 0.00 93 1015.2
20260905123401 79 61 0.0 3.0 0.00 0.00 0.00 96 1015.2
20260905122856 78 351 0.0 2.0 0.00 0.00 0.00 98 1015.1
20260905122355 78 92 0.0 2.0 0.00 0.00 0.00 99 1015.0